WetterOnline ( https://www.wetteronline.de )

Wetter aktuell Malmö

Aktuelles Wetter: København/Kastrup (5m)

6-stündlich | Neueste Meldungen
Ortszeit Temperatur Wetter
So, 03.03. 19:00 5.3° C -
So, 03.03. 13:00 6.5° C leichte Schauer
So, 03.03. 7:00 5.4° C bedeckt
So, 03.03. 1:00 6.3° C bewölkt
Sa, 02.03. 19:00 6.3° C Nebel
Sa, 02.03. 13:00 6.5° C Nebel
Sa, 02.03. 7:00 6.3° C Sprühregen
Sa, 02.03. 1:00 4.8° C Nebel
Ortszeit Temperatur Wetter
So, 03.03. 20:00 4.7° C -
So, 03.03. 19:00 5.3° C -
So, 03.03. 18:00 5.8° C wolkig
So, 03.03. 17:00 6.3° C fast wolkenlos
So, 03.03. 16:00 6.6° C leichter Regen
So, 03.03. 15:00 6.6° C leicht bewölkt
So, 03.03. 14:00 6.6° C bewölkt
Ortszeit Relative Feuchte Sichtweite
So, 03.03. 19:00 86% 14 km
So, 03.03. 13:00 95% 2.8 km
So, 03.03. 7:00 95% 2.3 km
So, 03.03. 1:00 98% 1.5 km
Sa, 02.03. 19:00 100% 100 m
Sa, 02.03. 13:00 100% 100 m
Sa, 02.03. 7:00 98% 0.8 km
Sa, 02.03. 1:00 100% <100 m
Ortszeit Relative Feuchte Sichtweite
So, 03.03. 20:00 85% 12 km
So, 03.03. 19:00 86% 14 km
So, 03.03. 18:00 86% 13 km
So, 03.03. 17:00 89% 8 km
So, 03.03. 16:00 91% 5.0 km
So, 03.03. 15:00 91% 5.0 km
So, 03.03. 14:00 91% 4.6 km
Ortszeit Niederschlagsmenge Niederschlagsart
So, 03.03. 19:00 0.0 l/m2 in 3 Std. -
So, 03.03. 13:00 989 l/m2 in 6 Std. Schauer
So, 03.03. 7:00 0.0 l/m2 in 3 Std. -
So, 03.03. 1:00 0.0 l/m2 in 3 Std. -
Sa, 02.03. 19:00 0.0 l/m2 in 3 Std. -
Sa, 02.03. 13:00 2 l/m2 in 6 Std. -
Sa, 02.03. 7:00 989 l/m2 in 12 Std. Regen
Sa, 02.03. 1:00 0.0 l/m2 in 3 Std. -
Ortszeit Niederschlagsmenge Niederschlagsart
So, 03.03. 20:00 0.0 l/m2 in 1 Std. -
So, 03.03. 19:00 0.0 l/m2 in 1 Std. -
So, 03.03. 18:00 0.0 l/m2 in 1 Std. -
So, 03.03. 17:00 0.0 l/m2 in 1 Std. Schauer
So, 03.03. 16:00 0.0 l/m2 in 1 Std. Regen
So, 03.03. 15:00 0.0 l/m2 in 1 Std. Schauer
So, 03.03. 14:00 0.2 l/m2 in 1 Std. Regenschauer
Ortszeit Stärke Spitze Richtung
km/h Bft. km/h Grad Sektor
So, 03.03. 19:00 28 4 - 80° O
So, 03.03. 13:00 15 3 28 70° O
So, 03.03. 7:00 19 3 26 70° O
So, 03.03. 1:00 7 2 - 70° O
Sa, 02.03. 19:00 11 2 - 120° SO
Sa, 02.03. 13:00 15 3 24 140° SO
Sa, 02.03. 7:00 13 3 24 110° O
Sa, 02.03. 1:00 7 2 - 100° O
Ortszeit Stärke Spitze Richtung
km/h Bft. km/h Grad Sektor
So, 03.03. 20:00 28 4 43 70° O
So, 03.03. 19:00 28 4 43 80° O
So, 03.03. 18:00 26 4 37 80° O
So, 03.03. 17:00 15 3 26 70° O
So, 03.03. 16:00 15 3 28 50° NO
So, 03.03. 15:00 20 4 30 80° O
So, 03.03. 14:00 15 3 26 70° O
Ortszeit Untergrenze Bedeckung Gattung
total tief tief mittel hoch
So, 03.03. 19:00 - - - - - -
So, 03.03. 13:00 240 m - 8/8 - - -
So, 03.03. 7:00 90 m - 8/8 - - -
So, 03.03. 1:00 930 m - 7/8 - - -
Sa, 02.03. 19:00 - - - - - -
Sa, 02.03. 13:00 - - - - - -
Sa, 02.03. 7:00 90 m - 7/8 - - -
Sa, 02.03. 1:00 - - - - - -
Ortszeit Bedeckungsgrad in Achtel und Wolkenuntergrenze
So, 03.03. 20:00 -
So, 03.03. 19:00 -
So, 03.03. 18:00 5(2400m)
So, 03.03. 17:00 1(1800m) 1(2400m)
So, 03.03. 16:00 1(1200m)
So, 03.03. 15:00 3(2100m)
So, 03.03. 14:00 7(900m)
Ortszeit Luftdruck NN (hPa) Tendenz (hPa in 3 Std.)
So, 03.03. 19:00 1011 + 1,0
So, 03.03. 13:00 1010 - 0,4
So, 03.03. 7:00 1010 + 0,4
So, 03.03. 1:00 1010 - 0,1
Sa, 02.03. 19:00 1010 + 1,1
Sa, 02.03. 13:00 1008 + 0,1
Sa, 02.03. 7:00 1007 + 0,1
Sa, 02.03. 1:00 1009 + 0,2
Ortszeit Luftdruck NN (hPa) Tendenz (hPa in 3 Std.)
So, 03.03. 20:00 1011 + 0,5
So, 03.03. 19:00 1011 + 1,0
So, 03.03. 18:00 1010 + 0,6
So, 03.03. 17:00 1010 + 0,1
So, 03.03. 16:00 1010 - 0,8
So, 03.03. 15:00 1010 - 0,8
So, 03.03. 14:00 1010 - 0,9
Ortszeit Schneehöhe (cm)
So, 03.03. 19:00 -
So, 03.03. 13:00 -
So, 03.03. 7:00 -
So, 03.03. 1:00 -
Sa, 02.03. 19:00 -
Sa, 02.03. 13:00 -
Sa, 02.03. 7:00 -
Sa, 02.03. 1:00 -
Ortszeit Schneehöhe (cm)
So, 03.03. 20:00 -
So, 03.03. 19:00 -
So, 03.03. 18:00 -
So, 03.03. 17:00 -
So, 03.03. 16:00 -
So, 03.03. 15:00 -
So, 03.03. 14:00 -
Link zu dieser Seite / Seite empfehlen

Das Wetter in ...